Location: Goettingen
(51.5300°N, 9.9433°E)
Time: 22:10:02
(UTC+01:00)

ISS - Pass Details

Date: 09 November 2019
Orbit: 412 x 421 km, 51.6° (Epoch: 15 November)

Event Time Altitude Azimuth Distance (km) Brightness Sun altitude
Exits shadow 04:13:52 13° 104° (ESE) 1,319 -0.6 -30.1°
Drops below altitude 10° 04:14:20 10° 103° (ESE) 1,502 -0.2 -30.0°
Sets 04:16:26 0° 103° (ESE) 2,367 1.0 -29.7°
